Погода Усть-Баргузин

Поиск расширенной информации на нашем сайте:

Полезная информация:

Новости сайта



02.01.2020
Опубликован Долгосрочный прогноз погоды по городам России и ближнего зарубежья на январь 2020 года.
Карты: Прогноз на январь и февраль 2020 года, Сравнение прогнозируемой аномалии приземной температуры воздуха на январь 2020 года по разным моделям.




Погода Усть-Баргузин - сегодня

Время (UTC), дата Ветер
(°,м/с) 
Видим.   Явления Облачность Т
(°С)
Тd
(°С)
f(%) Тe
(°С)
Pmin
(гПа)
dP
(гПа)
Po
(мм)
O2
(г/м3)
Тmin Tmax R s Состояние
почвы
00 30.11.20 120 (ЮВ) н/о  снег  10/10 600 м 
[Ns]
-14.2 -16.2 85 -18  1038.5  0.1  733  313  -14.4    44  равномерный
сухой снег
100% 
03 30.11.20 120 (ЮВ) 2000 м  слаб. снег  10/0 средняя 
[As op]
-13.6 -15.6 85 -16  1038.6  0.2  733  312  -14.5         
06 30.11.20 090 (В) 4000 м  слаб. ливневой снег  10/6 600 м кучево-дожд., средняя, верхняя 
[Cb cap|Ac und|Ci sp]
-12 -13.9 86 -14  1037.5  -0.6  733  310           
09 30.11.20 130 (ЮВ) н/о  слаб. ливневой снег  10/8 600 м кучево-дожд., средняя 
[Cb cap|Ac As]
-11.4 -13 88 -11  1037  -0.3  733  309           
12 30.11.20 260 (З) 3-10{10}  н/о  слаб. ливневой снег  10/6 600 м кучево-дожд., средняя 
[Cb cap|Ac As]
-6.9 -9.2 84 -10  1036  733  304    -6.9     
15 30.11.20 240 (ЮЗ) 3{10}  н/о  слаб. ливневой снег  10/6 600 м кучево-дожд., средняя 
[Cb cap|Ac As]
-6.6 -9.7 79 -9  1035.6  -0.3  732  303           
18 30.11.20 230 (ЮЗ) 4-10{10}  н/о  слаб. ливневой снег  10/5 600 м кучево-дожд., средняя 
[Cb cap|Ac As]
-6.6 -10.4 74 -10  1035.3  -0.3  732  303           
21 30.11.20 210 (ЮЗ) 4-10{11}  н/о  в посл. час ливневой снег  10/6 600 м кучево-дожд., средняя 
[Cb cap|Ac As]
-6.9 -10.1 78 -10  1034.7  -0.6  732  303           
00 01.12.20 070 (В) 1{10}  н/о  слаб. ливневой снег  10/5 600 м кучево-дожд., средняя 
[Cb cap|Ac As]
-8 -9.7 88 -8  1035.4  0.4  732  305  -8    0.6  40  равномерный
сухой снег
100% 
03 01.12.20 060 (СВ) 10 км  осадки на расстоянии{ливн. осадки}  10/4 600 м кучево-дожд., средняя 
[Cb cap|Ac As]
-8.6 -10.8 84 -8  1035.8  0.2  732  306  -9.2         
06 01.12.20 060 (СВ) 20000 м  осадки на расстоянии{ливн. осадки}  8/3 600 м кучево-дожд., средняя, верхняя 
[Cb cap|Ac trans|Ci sp]
-8.1 -11.4 77 -8  1035.4  -0.2  732  305           
09 01.12.20 260 (З) н/о  в посл. час ливневой снег  10/5 600 м кучево-дожд., средняя 
[Cb cap|Ac As]
-5.3 -8.5 78 -7  1034.3  -0.4  732  302           
12 01.12.20 080 (В) н/о  слаб. ливневой снег  10/4 600 м кучево-дожд., средняя 
[Cb cap|Ac As]
-9.5 -12.3 80 -9  1036.1  0.7  732  307    -5  0.7     
15 01.12.20 230 (ЮЗ) н/о  слаб. ливневой снег  10/6 600 м кучево-дожд., средняя 
[Cb cap|Ac As]
-6.2 -8.1 86 -8  1035.1  -0.2  732  303           
18 01.12.20 310 (СЗ) н/о  ливневой снег  10/8 600 м кучево-дожд., средняя 
[Cb cap|Ac As]
-9.2 -10.9 87 -11  1036.3  0.5  733  306           
21 01.12.20 070 (В) 2{10}  н/о  {ливн. осадки}  10/4 600 м кучево-дожд., средняя 
[Cb cap|Ac As]
-10 -11.7 87 -12  1037.1  0.6  733  308           
00 02.12.20 240 (ЮЗ) н/о  слаб. ливневой снег  10/8 600 м кучево-дожд., средняя 
[Cb cap|Ac As]
-6.1 -7.7 88 -9  1037  0.7  734  303  -11.5    43  равномерный
сухой снег
100% 
03 02.12.20 210 (ЮЗ) 2{12}  2000 м  слаб. ливневой снег  10/6 600 м кучево-дожд., средняя, верхняя 
[Cb cap|Ac As|Ci sp]
-6 -8.4 83 -7  1038.1  1.1  734  303           
06 02.12.20 240 (ЮЗ) 4000 м  слаб. ливневой снег  10/6 600 м кучево-дожд., средняя, верхняя 
[Cb cap|Ac As|Ci sp]
-5.6 -8.1 83 -7  1038.3  0.2  734  303           
09 02.12.20 230 (ЮЗ) 3{11}  н/о  позёмок{ливн. осадки}  10/4 600 м кучево-дожд., средняя, верхняя 
[Cb cap|Ac und|Ci sp]
-5.1 -10.3 67 -7  1038.9  0.7  735  303           
12 02.12.20 250 (З) 3{10}  н/о  позёмок{ливн. осадки}  10/4 600 м кучево-дожд., средняя 
[Cb cap|Ac As]
-5.2 -10.2 68 -8  1039.7  0.7  736  303    -4.5     
15 02.12.20 270 (З) 3{10}  н/о  позёмок  10/4 600 м кучево-дожд., средняя 
[Cb cap|Ac As]
-5.2 -9.2 73 -8  1039.4  -0.2  735  303           
18 02.12.20 240 (ЮЗ) 4-10{11}  н/о  слаб. ливневой снег  10/5 600 м кучево-дожд., средняя 
[Cb cap|Ac As]
-4.5 -8.4 74 -8  1038.2  -1  735  302           
21 02.12.20 250 (З) 4-10{12}  н/о  позёмок{ливн. осадки}  10/5 600 м кучево-дожд., средняя, верхняя 
[Cb cap|Ac trans|Ci sp]
-6.7 -10.9 72 -10  1038.4  -0.3  734  304           
00 03.12.20 320 (СЗ) 3{12}  н/о  позёмок{ливн. осадки}  10/6 600 м кучево-дожд., средняя, верхняя 
[Cb cap|Ac trans|Ci sp]
-5.5 -9.7 72 -8  1036.4  -1.6  733  302  -6.8    0.2  38  равномерный
сухой снег
100% 
Время (UTC), дата Ветер
(°,м/с) 
Видим.   Явления Облачность Т
(°С)
Тd
(°С)
f(%) Тe
(°С)
Pmin
(гПа)
dP
(гПа)
Po
(мм)
O2
(г/м3)
Тmin Tmax R s Состояние
почвы

Для получения пояснительной информации подведите курсор к названию столбца.

ПОГОДА Усть-Баргузин - архив

Всё, что Вы хотите узнать о погоде Усть-Баргузин - удобно и подробно!

Выберите нужную дату (начиная с 1 января 2019* года) и нажмите кнопку "Найти".
Будут отображены архивные сводки погоды по пункту Усть-Баргузин, начиная с указанной даты.


Отображать данные в формате CSV (для использования в таблицах Excel)


Внимание! Наш архив погоды предназначен исключительно для личного некоммерческого использования в познавательных целях. Если Вам необходимы официальные справки о состоянии погоды (для производственных, юридических, коммерческих и т.п. целей), обращайтесь в органы Росгидромета.

*Примечание: данная дата относится к архиву по метеостанциям СССР (Россия, СНГ, Балтия).
Архив по метеостанциям Зарубежной Европы и Азии (кроме Китая) хранится 10 дней, по другим регионам земного шара (Китай, Африка, Америка, Австралия, Океания) - 1 день.

Усть-Баргузин - район местоположения метеостанции


Название, широта, долгота, высота метеостанции:
Усть-Баргузин 53.4°ш. 109°д. 461 м над ур. моря [Российская Федерация]

Дополнительная информация

В oтличие oт бoльшинства пoгoдных сайтoв мы публикуем пoдрoбную метеoинфoрмацию в детальнoм прoфессиoнальнoм фoрмате.

Характеристики температуры и влажнoсти вoздуха измеряются на высoте 2 м в тени вдали oт зданий и деревьев.
Скoрoсть ветра измеряется на высoте 10 м (на урoвне рoста челoвека скoрoсть ветра ниже в 1.5-2 раза). Если метеoстанция нахoдится в гoрoде или в лесу, тo скoрoсть ветра занижена на 2-4 м/с пo сравнению с oткрытым местoм. Скoрoсть ветра над акватoриями крупных рек и oзёр, а также на вершинах хoлмoв на 2-5 м/с выше, чем в oбычных услoвиях.
Атмoсфернoе давление в разных тoчках местнoсти мoжет значительнo oтличаться oт давления на метеoстанции, в зависимoсти oт услoвий рельефа (при пoдъёме на 10 м давление пoнижается примернo на 1 мм рт.ст.).